Location: Caltech
(34.1382°N, 118.1253°W)
Time: 05:44:01
(UTC-07:00)

Transit 2A - Visible Passes

Search period start: 29 July 2014 00:00
Search period end: 08 August 2014 00:00
Orbit: 603 x 960 km, 66.7° (Epoch: 28 July)

Date Brightness Start Highest point End Pass type
(mag) Time Alt. Az. Time Alt. Az. Time Alt. Az.
29 Jul 8.5 00:42:53 13° NNE 00:42:53 13° NNE 00:43:23 10° NNE visible
30 Jul 8.6 01:50:31 10° NNW 01:50:31 10° NNW 01:50:42 10° NNW visible
31 Jul 8.5 01:17:37 13° NNW 01:17:37 13° NNW 01:18:22 10° N visible
01 Aug 8.5 00:44:39 14° N 00:44:39 14° N 00:45:29 10° N visible
02 Aug 8.4 00:11:38 14° N 00:11:38 14° N 00:12:21 10° NNE visible
02 Aug 8.3 23:38:34 13° NNE 23:38:34 13° NNE 23:39:04 10° NNE visible
03 Aug 8.3 23:05:24 11° NNE 23:05:24 11° NNE 23:05:37 10° NNE visible
05 Aug 8.5 00:12:37 13° NNW 00:12:37 13° NNW 00:13:44 10° NNW visible
05 Aug 8.1 23:39:11 19° NNW 23:39:11 19° NNW 23:41:00 10° N visible
06 Aug 7.5 23:05:31 27° NNW 23:05:31 27° NNW 23:07:57 10° N visible
07 Aug 6.6 22:31:27 44° NNW 22:31:27 44° NNW 22:34:43 10° NNE visible
